Flag for Switzerland Weather past 2 weeks in Steffisburg, Bern, Switzerland

Now
25 °F

Clear.


Feels Like: 20 °F
Forecast: 20 / 35 °F
Wind: 3 mph from North

Location: Bern / Belp

Current Time: Jan 25, 2015 at 8:08:39 PM

Latest Report: Jan 25, 2015 at 7:20 PM


Visibility: 10 mi

Pressure: 30.36 "Hg

Humidity: 86%

Dew point: 21 °F

Location of SteffisburgLocation

Historic Weather in Steffisburg — Graph

°F

Steffisburg temperature yesterday

Maximum temperature yesterday: 37 °F (at 12:50 PM)
Minimum temperature yesterday: 28 °F (at 11:50 PM)
Average temperature yesterday: 33 °F

Past Weeks' High & Low Weather Summary

 TemperatureHumidityPressure
High57 °F (Jan 10, 6:20 PM)100% (Jan 12, 10:20 PM)30.48 "Hg (Jan 12, 10:20 PM)
Low21 °F (Jan 13, 7:20 AM)47% (Jan 13, 8:20 PM)29.65 "Hg (Jan 16, 3:50 PM)
Average35 °F85%30.01 "Hg
* Reported Jan 10 6:20 PM — Jan 25 6:50 PM, Steffisburg, Weather by CustomWeather, © 2014

Note: Actual official high and low records may vary slightly from our data, if they occured in-between our weather recording intervals... More about our weather records

Advertising

Steffisburg weather history for previous 24 hours

 ConditionsComfort  
Time TempWeatherWind HumidityBarometerVisibility
6:50 PM
Jan 25
27 °FClear.3 mph86%30.36 "HgN/A
6:20 PM28 °FClear.3 mph80%30.36 "HgN/A
5:50 PM32 °FPassing clouds.5 mph75%30.36 "HgN/A
5:20 PM32 °FScattered clouds.3 mph69%30.36 "HgN/A
4:50 PM32 °FScattered clouds.7 mph69%30.33 "HgN/A
4:20 PM34 °FScattered clouds.7 mph65%30.33 "HgN/A
3:50 PM34 °FScattered clouds.7 mph65%30.33 "HgN/A
3:20 PM34 °FScattered clouds.6 mph65%30.33 "HgN/A
2:50 PM34 °FScattered clouds.7 mph65%30.33 "HgN/A
2:20 PM34 °FPartly sunny.7 mph70%30.33 "HgN/A
1:50 PM34 °FPartly sunny.2 mph65%30.36 "HgN/A
1:20 PM34 °FPartly sunny.5 mph70%30.36 "HgN/A
12:50 PM34 °FPartly sunny.5 mph70%30.36 "HgN/A
12:20 PM34 °FPartly sunny.5 mph70%30.39 "HgN/A
11:50 AM34 °FPartly sunny.3 mph70%30.39 "HgN/A
11:20 AM34 °FPartly sunny.2 mph70%30.39 "HgN/A
10:50 AM34 °FPartly sunny.5 mph75%30.36 "HgN/A
10:20 AM32 °FPartly sunny.1 mph75%30.36 "HgN/A
9:50 AM32 °FPartly sunny.2 mph75%30.36 "HgN/A
9:20 AM32 °FPartly sunny.5 mph80%30.36 "HgN/A
8:50 AM30 °FPartly sunny.1 mph93%30.36 "HgN/A
8:20 AM30 °FPartly sunny.2 mph93%30.33 "HgN/A
7:50 AM28 °FPartly cloudy.1 mph100%30.33 "HgN/A
7:20 AM28 °FPartly cloudy.1 mph100%30.33 "Hg3 mi
6:50 AM30 °FSnow flurries. Partly cloudy.2 mph93%30.30 "Hg3 mi
6:20 AM30 °FLight snow. Partly cloudy.2 mph93%30.30 "Hg2 mi
5:50 AM30 °FSnow. Ice fog.2 mph93%30.30 "Hg1 mi
5:20 AM30 °FLight snow. Partly cloudy.2 mph93%30.27 "Hg1 mi
4:20 AM30 °FSnow. Ice fog.1 mph93%30.27 "Hg1 mi
3:50 AM30 °FSnow. Passing clouds.1 mph93%30.27 "Hg1 mi
3:20 AM30 °FSnow. Ice fog.No wind93%30.27 "Hg1 mi
2:50 AM30 °FSnow. Ice fog.1 mph93%30.27 "Hg1 mi
2:20 AM30 °FSnow. Ice fog.1 mph93%30.27 "Hg1 mi
1:50 AM30 °FLight snow. Passing clouds.1 mph93%30.27 "Hg2 mi
1:20 AM30 °FSnow. Partly cloudy.3 mph93%30.24 "Hg1 mi
12:50 AM28 °FLight snow. Passing clouds.3 mph100%30.24 "Hg3 mi
12:20 AM28 °FLight snow. Partly cloudy.1 mph100%30.24 "Hg5 mi
11:50 PM
Jan 24
28 °FLight snow. Partly cloudy.1 mph100%30.24 "HgN/A
11:20 PM30 °FLight snow. Passing clouds.No wind93%30.24 "HgN/A
10:20 PM30 °FLight snow. Passing clouds.5 mph93%30.21 "Hg2 mi
9:50 PM30 °FLight snow. Passing clouds.7 mph93%30.21 "Hg2 mi
9:20 PM32 °FSnow flurries. Passing clouds.5 mph93%30.21 "Hg4 mi
8:50 PM32 °FSnow flurries. Partly cloudy.5 mph93%30.21 "HgN/A
8:20 PM32 °FLight snow. Partly cloudy.5 mph93%30.18 "HgN/A
Weather by CustomWeather, © 2014

See weather overviewHow to use our weather pages